This is the latest recevied weather packets stored in our database for station/object KF4WSW-13. If no packets are shown the sender has not sent any weather packets the latest 10 day(s).
| Time | Temp. | Humidity | Pressure | Rain* | Wind** | Luminosity | Snow |
|---|---|---|---|---|---|---|---|
| 1778094238 | 28.89° C | 76% | 1014.5 hPa | 0 mm | - | 662 W/m² | - |
| 1778093935 | 28.89° C | 75% | 1014.4 hPa | 0 mm | - | 678 W/m² | - |
| 1778093632 | 28.89° C | 76% | 1014.6 hPa | 0 mm | - | 731 W/m² | - |
| 1778093329 | 28.89° C | 75% | 1014.8 hPa | 0 mm | - | 685 W/m² | - |
| 1778093026 | 28.89° C | 74% | 1014.6 hPa | 0 mm | - | 724 W/m² | - |
| 1778092723 | 28.89° C | 74% | 1014.6 hPa | 0 mm | - | 748 W/m² | - |
| 1778092419 | 29.44° C | 73% | 1014.7 hPa | 0 mm | - | 710 W/m² | - |
| 1778092116 | 29.44° C | 73% | 1014.7 hPa | 0 mm | - | 755 W/m² | - |
| 1778091813 | 28.89° C | 73% | 1014.5 hPa | 0 mm | - | 748 W/m² | - |
| 1778091511 | 28.89° C | 74% | 1014.8 hPa | 0 mm | - | 736 W/m² | - |
| 1778091209 | 29.44° C | 73% | 1014.7 hPa | 0 mm | - | 772 W/m² | - |
| 1778090905 | 29.44° C | 73% | 1015 hPa | 0 mm | - | 768 W/m² | - |
| 1778090601 | 28.89° C | 74% | 1014.7 hPa | 0 mm | - | 794 W/m² | - |
| 1778090298 | 28.89° C | 74% | 1014.9 hPa | 0 mm | - | 780 W/m² | - |
| 1778089995 | 28.89° C | 73% | 1015.1 hPa | 0 mm | - | 774 W/m² | - |
| 1778089692 | 28.89° C | 73% | 1014.9 hPa | 0 mm | - | 747 W/m² | - |
| 1778089389 | 30° C | 71% | 1015.1 hPa | 0 mm | - | 708 W/m² | - |
| 1778089087 | 29.44° C | 72% | 1015 hPa | 0 mm | - | 751 W/m² | - |
| 1778088783 | 30° C | 70% | 1015 hPa | 0 mm | - | 763 W/m² | - |
| 1778088481 | 30° C | 71% | 1015 hPa | 0 mm | - | 813 W/m² | - |
| 1778088177 | 30° C | 69% | 1015 hPa | 0 mm | - | 779 W/m² | - |
| 1778087875 | 30° C | 70% | 1015 hPa | 0 mm | - | 777 W/m² | - |
| 1778087571 | 28.89° C | 72% | 1015.2 hPa | 0 mm | - | 776 W/m² | - |
| 1778087269 | 29.44° C | 71% | 1015.1 hPa | 0 mm | - | 757 W/m² | - |
| 1778086965 | 29.44° C | 72% | 1015.2 hPa | 0 mm | - | 756 W/m² | - |
* Rain latest hour (hover to see other rain measurements)
** Current wind speed in m/s (hover to see current wind gust speed)